Temp
29 28 28 28 28 27 27 27 27 27 27 27 27 26 26 26 26 27 26 25 24 24 24 24 23 23 23 23 23 22 22 22 22 22 21 21 21 22 22 23 22 22 22 22 22 22 22 22 22 22 22 22 22 21 22 22 22 22 22 21 21 21 21 21 21 21 21 21 21 21 22 22 21 21 21 20 20 20 20 19 19 19 19 19 19
29 29 28 28 28 28 27 27 27 27 27 27 26 26 26 26 26 26 25 25 24 24 24 24 23 23 23 23 23 22 22 22 22 22 21 21 21 21 22 22 22 22 22 22 22 22 22 22 22 22 22 22 22 22 22 22 23 22 22 22 21 21 21 21 21 21 21 21 21 21 21 21 21 21 21 20 20 20 20 19 19 19 19 19 19
30 29 28 28 28 28 28 27 27 27 27 27 27 27 27 26 26 26 25 25 25 24 24 24 23 23 23 23 22 22 22 22 22 21 21 21 21 21 22 22 22 22 22 22 22 22 22 22 22 22 22 22 22 22 22 22 22 22 22 21 21 21 21 21 21 20 21 21 21 21 21 21 21 21 20 20 20 19 19 19 19 19 19 19 19
31 29 29 29 28 28 28 28 27 27 27 27 27 28 27 26 26 25 25 25 25 24 24 24 23 23 23 22 22 22 22 21 21 21 21 21 21 21 22 22 22 22 22 22 22 22 22 22 22 22 22 22 22 22 22 22 22 22 21 21 21 21 21 21 20 20 20 20 21 20 21 20 20 20 20 20 20 19 19 19 19 19 19 19 19
32 30 29 29 29 28 28 28 28 28 28 28 28 28 28 27 26 26 26 26 25 24 24 23 23 22 22 22 22 21 21 21 21 21 21 21 21 21 21 21 21 22 22 22 22 22 22 22 22 22 22 22 22 22 22 22 22 21 21 21 21 21 21 21 20 20 20 20 20 20 20 20 20 20 20 20 20 20 19 19 19 19 19 19 19
33 32 30 30 29 29 28 28 28 28 28 29 28 28 28 27 26 26 26 26 26 24 24 23 23 22 22 22 22 21 21 21 20 21 21 21 21 21 21 21 21 22 22 22 22 22 22 22 22 22 22 22 22 22 22 22 22 22 22 21 21 21 21 21 20 20 20 20 20 20 20 20 20 20 20 20 20 20 20 19 19 19 19 19 19
34 33 31 31 30 29 29 28 28 28 28 29 28 28 28 28 28 27 26 26 26 25 24 23 23 22 22 22 22 21 21 21 20 20 21 21 21 21 21 22 22 22 22 22 22 22 22 22 22 22 22 22 22 22 22 22 22 22 22 21 21 21 21 21 20 20 20 20 20 20 20 20 20 20 20 20 20 20 20 19 19 19 19 19 19
34 33 32 31 30 29 29 28 28 28 28 28 28 28 28 28 29 28 26 26 27 26 24 23 23 22 22 22 21 21 21 21 20 20 21 21 21 21 21 22 22 22 22 22 22 22 23 23 23 23 22 22 22 22 22 22 22 21 21 21 21 21 21 20 20 20 20 20 20 20 20 20 20 20 20 20 20 20 20 20 19 19 19 19 19
34 34 32 31 30 29 29 28 28 28 28 28 28 27 27 28 29 28 27 26 27 26 24 23 23 22 22 22 21 21 21 20 20 20 21 21 21 21 21 22 22 22 22 22 22 22 22 23 23 23 23 22 22 22 22 22 22 21 21 21 21 21 20 20 20 20 20 20 20 20 20 20 20 20 20 20 20 20 20 19 19 19 19 19 19
33 33 32 31 30 29 28 28 28 27 27 27 27 27 27 27 28 28 27 26 26 26 24 24 23 23 22 21 21 21 20 20 21 21 21 21 21 21 22 22 22 22 22 22 22 22 22 23 23 22 22 22 22 22 22 21 21 21 21 21 21 20 20 20 20 20 20 20 20 20 20 20 20 20 20 20 19 19 19 19 19 18 18 18 19
33 32 32 31 30 29 28 27 27 27 26 27 27 26 26 27 27 27 26 25 25 25 24 24 23 23 22 22 21 21 20 20 21 21 21 21 21 22 22 22 22 22 22 22 22 22 22 23 23 22 21 22 22 22 21 21 21 20 20 20 20 20 19 19 19 19 19 20 20 20 19 19 19 19 19 19 19 19 19 18 18 18 18 18 18
32 32 31 30 29 28 27 27 27 26 26 26 26 26 26 26 26 25 25 25 25 24 24 23 23 23 22 22 22 21 21 20 20 21 21 21 21 22 22 22 22 22 22 22 22 22 23 23 22 21 21 21 21 21 20 20 20 20 19 19 19 19 19 19 19 18 19 19 19 19 19 19 19 19 19 19 18 18 18 18 18 18 18 18 18
31 31 30 29 28 27 27 27 26 26 25 25 25 25 25 25 25 24 24 24 24 23 23 23 23 23 22 22 22 21 21 21 20 20 21 21 21 21 22 23 23 23 23 23 23 23 22 22 21 21 21 21 21 20 20 19 19 19 19 19 18 18 19 19 19 19 18 18 18 18 18 18 18 18 18 17 17 17 17 17 17 17 17 17 17
31 30 29 29 28 27 27 27 26 25 25 25 24 25 25 25 25 24 24 24 23 23 23 22 22 22 22 21 21 21 21 21 20 20 21 21 21 21 22 22 23 23 23 23 23 22 21 21 21 20 20 20 20 20 19 19 19 19 19 18 18 18 19 19 19 19 18 18 17 17 17 17 17 17 17 17 16 16 16 16 16 16 16 16 16
30 29 29 28 28 27 27 27 26 26 25 25 24 24 24 25 24 24 24 24 23 22 23 22 22 21 21 21 21 21 21 21 21 21 21 21 21 21 21 21 22 22 22 22 22 22 21 20 20 20 20 20 19 19 19 19 18 18 19 19 19 18 19 19 19 19 18 18 17 17 17 17 17 17 16 16 16 15 15 15 15 15 16 16 16
30 29 28 28 28 27 27 27 26 26 26 25 25 24 24 24 24 24 24 24 23 22 22 22 22 21 21 21 21 21 22 22 22 21 21 21 21 21 20 21 21 22 22 22 22 21 20 20 20 20 20 19 19 19 20 19 18 18 18 18 18 18 19 19 19 19 19 18 18 18 17 17 17 16 16 16 15 15 15 15 15 16 16 16 17
30 29 28 28 28 27 27 26 26 26 26 25 25 24 24 24 24 24 24 24 23 23 22 22 22 21 21 21 21 21 22 22 22 22 21 21 21 20 20 21 21 22 22 21 21 20 20 20 20 19 19 19 19 19 19 19 18 18 18 18 18 18 19 19 19 19 19 18 18 18 17 17 16 16 16 16 16 15 15 15 15 16 17 17 17
30 29 28 28 28 27 27 26 26 26 26 25 25 25 24 24 24 24 24 24 24 23 23 22 22 21 21 21 21 21 22 22 22 21 21 21 21 20 20 21 21 21 21 20 20 20 20 20 20 19 19 19 19 19 18 18 18 17 17 18 18 18 18 19 19 19 18 18 18 17 17 17 16 16 16 16 16 16 15 15 16 17 17 17 17
29 29 28 28 27 27 27 26 26 26 26 26 26 25 24 24 24 23 23 24 24 23 23 23 22 21 21 21 21 21 22 22 21 21 21 21 21 21 20 21 21 20 20 20 19 19 19 19 19 19 19 19 19 18 18 17 17 17 17 17 18 18 18 18 18 18 18 17 17 17 17 17 17 17 17 17 17 17 17 16 16 16 16 16 17
29 29 28 28 27 27 26 26 26 26 25 26 26 25 24 24 24 24 23 23 23 23 23 22 21 21 21 21 21 21 21 21 21 21 20 21 21 21 20 20 20 20 20 20 19 19 19 19 19 19 19 19 18 18 17 17 17 17 16 17 17 17 17 17 17 16 16 16 16 16 16 17 17 18 18 18 18 18 18 17 16 16 17 17 18
29 28 28 28 27 26 26 26 25 25 25 25 26 25 25 24 24 24 23 23 22 22 22 21 21 20 20 20 21 21 21 22 21 21 20 20 20 20 20 20 20 20 19 19 19 19 19 19 19 19 19 18 17 17 17 17 17 17 16 16 16 16 16 16 16 16 16 16 16 16 17 18 18 18 18 19 19 19 18 17 17 17 17 17 17
28 28 27 27 26 26 26 25 25 25 25 25 25 25 25 24 24 23 23 22 22 21 21 20 21 21 20 20 20 20 21 21 21 20 20 19 19 19 19 20 20 20 19 19 19 18 18 18 18 18 18 17 17 17 17 17 17 16 16 16 16 15 15 15 15 15 15 16 16 17 17 18 18 18 18 18 18 18 17 17 17 16 16 16 16
27 27 27 26 26 26 25 25 24 25 25 25 25 25 24 24 23 22 22 21 21 20 20 20 20 21 21 20 20 20 20 20 20 20 19 19 19 19 19 19 20 20 19 19 19 18 18 18 17 17 17 17 17 16 16 16 16 16 16 15 15 14 14 14 14 15 15 16 16 17 17 17 18 18 18 17 17 16 16 16 15 15 15 15 15
26 26 26 26 26 25 25 24 24 24 25 25 25 24 24 23 22 22 21 21 21 20 20 20 21 21 21 20 19 19 19 19 19 19 19 19 19 19 19 19 19 19 18 18 18 18 18 18 17 17 17 17 16 16 16 16 16 15 15 14 14 13 14 14 14 15 15 16 17 17 17 17 17 17 16 16 16 15 15 14 14 14 14 14 14
26 26 25 25 25 25 24 24 24 24 25 25 24 23 23 23 22 21 21 21 20 21 21 21 21 21 21 20 19 18 18 18 19 19 19 18 18 18 18 19 19 18 18 17 18 18 18 18 17 17 17 16 16 16 16 15 15 14 14 13 13 13 14 14 15 15 16 17 17 17 17 17 16 16 16 15 15 14 14 14 14 14 14 15 15
25 25 24 24 24 24 24 24 24 24 24 24 23 23 23 22 21 21 21 21 21 21 21 21 21 21 21 20 19 18 18 17 18 18 18 17 17 18 18 18 18 17 17 17 17 17 17 17 17 16 16 16 15 15 14 14 14 14 13 14 14 14 14 15 15 16 16 16 16 16 16 16 16 15 15 14 14 14 14 14 15 15 15 15 15
24 24 24 24 24 24 24 24 24 24 23 23 23 23 22 22 21 21 21 21 21 21 21 22 22 21 21 20 19 19 18 17 17 17 17 17 17 17 17 17 17 16 16 16 17 17 17 17 17 16 15 15 14 14 14 14 14 14 14 14 14 14 15 15 16 16 15 15 15 15 15 15 15 15 14 14 15 15 15 15 15 15 15 15 15
24 24 24 25 25 24 24 24 23 23 23 22 22 22 22 21 21 21 21 21 22 22 22 22 22 21 21 20 19 19 19 18 17 17 17 17 16 16 16 16 16 15 16 16 17 16 16 16 16 16 15 15 15 15 15 15 15 15 15 15 15 15 16 16 16 16 15 15 15 15 15 15 15 15 15 15 15 15 15 15 15 15 15 15 15
25 25 25 25 24 24 23 23 23 23 22 20 20 20 20 21 21 20 20 21 21 22 22 22 22 21 20 19 19 19 19 19 19 18 17 17 16 16 15 15 16 16 17 18 17 17 16 17 17 17 17 17 17 18 18 17 17 16 16 17 17 17 17 17 17 16 16 16 17 16 15 15 15 15 15 15 15 15 15 15 15 15 15 15 15
26 26 25 25 24 23 23 23 23 22 22 20 19 18 18 19 20 20 20 20 21 21 21 21 21 21 20 19 19 19 20 20 19 19 18 17 17 16 16 16 17 17 18 18 19 18 18 19 19 19 19 19 19 18 18 18 18 18 17 17 17 17 17 17 17 17 17 17 16 15 15 15 15 15 15 15 15 15 15 15 15 15 15 15 16
26 26 26 26 24 24 24 23 22 22 22 21 20 19 18 18 19 19 19 20 19 20 20 19 20 20 20 19 19 19 19 19 19 19 18 18 17 17 17 17 18 18 18 18 19 19 19 20 20 20 19 19 19 19 19 19 19 18 18 18 18 18 18 17 17 17 16 16 15 14 15 15 15 15 15 15 15 15 15 15 15 15 16 16 16
27 27 26 25 24 24 23 22 22 22 21 21 20 20 20 19 18 18 18 19 19 19 19 19 19 20 20 19 19 19 19 19 19 19 18 18 17 17 17 17 18 18 17 17 18 19 19 19 19 20 19 19 19 19 19 19 19 18 18 18 18 18 18 17 16 15 15 15 14 14 15 15 15 15 15 15 15 15 15 15 16 16 16 16 16
27 27 26 24 23 24 23 23 22 22 21 20 20 20 21 20 18 17 17 17 18 18 19 19 19 19 19 19 19 19 19 19 19 18 18 17 17 16 17 17 17 17 17 17 17 18 19 19 19 20 19 19 19 19 19 18 18 18 18 18 17 18 18 17 15 14 14 14 14 14 15 15 15 15 15 15 15 15 15 16 16 16 16 16 16
26 26 25 24 24 25 24 23 23 22 21 21 21 20 21 21 20 18 18 18 18 18 18 19 19 19 19 19 19 19 19 18 18 18 17 17 16 16 16 16 16 16 16 16 17 18 18 19 20 20 19 19 19 18 18 18 17 17 17 17 17 18 18 16 15 14 15 14 15 15 15 15 15 15 15 15 15 15 15 16 16 16 16 16 16
25 24 24 24 25 25 24 24 24 23 22 22 21 21 21 21 21 20 20 20 20 20 18 17 18 18 18 18 18 18 18 18 17 17 17 17 16 16 16 16 15 15 15 15 16 17 18 19 19 19 19 18 18 17 17 17 17 17 17 16 17 18 17 15 15 15 15 14 14 15 15 15 15 15 15 15 15 15 15 16 16 16 16 15 15
24 24 24 24 24 24 24 24 24 23 23 23 22 22 22 22 22 22 22 22 22 21 18 16 15 16 16 17 17 17 17 17 16 16 16 16 15 15 16 16 17 17 16 16 16 17 18 18 18 18 18 17 17 16 16 16 16 17 16 16 17 17 16 14 14 14 14 14 14 14 14 14 15 15 15 15 15 15 15 15 15 15 15 15 15
24 24 24 24 24 24 24 23 23 23 23 23 22 22 22 22 22 23 23 23 22 20 18 15 14 14 14 14 15 16 15 15 15 14 14 15 15 16 17 18 18 18 18 18 17 17 17 17 17 17 17 16 16 16 16 16 16 17 16 16 16 15 14 13 13 13 13 13 14 14 14 15 15 15 15 15 15 15 15 15 15 15 15 15 15
24 24 24 24 24 23 23 23 22 22 22 23 23 22 22 22 22 23 23 23 21 20 18 16 16 15 14 13 13 14 14 14 14 14 14 14 15 15 16 18 19 19 19 18 17 17 17 17 16 16 16 16 16 16 16 16 16 16 16 16 15 14 13 13 13 12 12 13 14 14 14 15 15 15 15 15 15 15 15 15 15 15 15 15 15
23 23 23 23 23 23 23 22 22 22 23 23 23 23 23 23 23 23 23 22 21 20 19 18 18 17 15 13 13 14 14 14 14 14 14 14 14 15 16 18 18 19 18 18 17 17 17 16 16 16 16 16 15 15 15 15 16 15 15 14 14 13 13 14 14 14 14 14 14 14 14 14 14 14 14 14 15 15 15 14 15 15 15 15 15
23 23 22 23 23 23 23 22 22 23 23 23 23 23 23 23 22 22 22 21 21 20 19 19 19 17 15 13 13 14 15 15 16 16 15 15 15 16 17 18 18 18 18 17 17 17 16 16 16 16 16 15 15 15 15 15 15 15 15 14 13 13 14 14 14 14 14 14 14 14 14 14 14 14 14 14 14 14 14 14 15 15 15 15 15
23 22 22 22 23 23 23 23 23 23 23 23 22 22 22 22 22 22 22 21 21 21 20 20 20 18 16 15 15 16 16 17 18 17 17 17 17 17 17 17 18 18 17 17 17 17 16 16 16 16 16 16 15 15 15 15 15 15 14 13 13 14 14 14 14 14 14 14 14 14 14 14 13 13 13 14 14 14 14 15 15 15 15 15 15
23 22 22 22 22 23 23 23 22 22 22 22 22 22 21 21 22 21 21 21 21 21 21 21 20 18 17 16 16 16 17 18 19 18 18 18 18 17 17 17 17 17 17 17 17 17 16 16 16 16 16 15 15 15 15 15 15 14 13 13 14 14 14 14 14 14 14 14 13 13 13 13 13 13 13 14 14 14 14 14 14 15 15 15 15
23 22 22 22 22 23 23 22 22 22 22 21 21 21 21 21 21 21 21 21 21 21 21 21 20 18 16 16 16 16 16 17 18 19 19 18 18 17 17 17 17 17 17 16 16 16 16 16 16 15 15 15 14 14 15 15 14 14 13 13 14 14 13 14 14 14 14 13 13 13 13 13 13 13 13 14 14 14 14 14 14 14 14 15 15
23 22 22 22 22 22 22 22 22 21 21 20 20 20 21 21 21 21 21 21 21 21 21 21 19 17 16 16 15 15 16 17 18 18 18 18 17 17 17 16 16 16 16 16 16 16 16 16 16 15 15 14 14 14 15 14 13 13 13 13 13 13 13 13 13 13 13 12 12 12 12 12 13 13 13 14 13 14 14 14 14 14 14 14 15
22 22 22 22 22 21 21 21 21 20 20 20 21 21 21 21 21 21 21 21 21 21 21 21 19 18 17 16 16 16 16 17 18 18 18 18 17 17 17 16 16 16 16 16 16 16 16 16 15 15 15 15 14 14 15 13 12 12 12 12 12 13 13 13 12 12 12 11 11 12 12 12 12 13 13 13 13 13 14 14 14 14 14 14 14
22 22 22 21 21 21 21 20 20 20 21 21 21 21 21 21 20 20 20 21 20 20 20 20 19 18 18 17 17 17 17 17 18 18 18 17 17 17 17 17 16 16 16 16 16 16 16 15 15 15 15 15 14 14 14 13 12 11 12 11 12 12 12 12 11 11 11 11 11 11 11 12 12 12 13 13 13 13 13 13 13 14 14 14 14
21 21 21 21 21 21 21 20 20 21 21 21 20 21 21 20 20 20 20 20 20 20 20 20 19 19 18 18 17 17 17 17 17 17 17 17 17 17 17 16 16 16 16 16 16 16 16 15 15 15 15 15 14 14 14 13 12 11 12 11 11 11 11 10 10 10 10 10 10 10 10 11 11 12 12 12 12 13 13 13 13 13 13 14 14
21 21 21 21 21 21 21 21 20 20 21 21 21 21 21 20 20 20 20 19 19 20 20 20 20 20 20 19 19 18 18 17 17 17 17 17 16 16 16 16 16 16 16 16 16 15 15 15 14 14 14 14 14 14 13 12 11 12 12 11 11 10 10 9 9 9 9 9 9 9 10 10 11 12 12 12 12 13 13 13 13 13 13 14 14
21 21 21 21 21 21 21 21 21 21 21 21 21 21 21 20 20 21 20 20 20 20 20 20 20 21 21 20 20 19 19 18 18 18 17 16 16 16 16 15 15 15 16 16 15 15 14 14 14 14 14 14 14 13 12 11 11 12 11 11 10 10 9 9 9 8 8 8 8 8 9 10 11 11 12 12 12 12 13 13 13 13 13 14 14
21 21 21 21 21 21 21 21 21 21 21 21 21 21 21 20 20 21 20 20 20 20 20 20 20 20 20 20 20 19 19 19 19 18 18 17 16 16 15 15 15 15 16 16 16 15 15 14 14 14 14 13 13 12 12 11 11 11 11 10 10 9 9 8 8 8 8 8 7 8 9 10 11 11 11 12 12 12 12 12 12 12 13 14 14
21 21 21 21 21 21 21 21 21 21 21 21 21 21 21 21 21 21 20 20 20 20 20 20 20 20 20 20 19 19 19 18 18 18 18 18 17 16 15 15 15 15 15 16 16 15 15 14 14 13 13 13 13 12 12 12 11 11 10 10 9 9 8 8 8 8 8 8 7 7 8 9 10 11 11 11 12 11 11 12 12 12 13 14 14
Height
747 751 753 756 759 762 765 768 772 775 778 782 784 785 788 791 793 795 797 799 800 801 802 803 805 807 808 809 811 813 814 814 815 817 818 820 821 823 824 825 826 827 828 829 829 829 830 830 830 830 830 830 830 830 830 830 829 829 830 830 830 830 830 830 829 827 825 824 823 822 821 820 819 819 818 817 817 816 816 815 814 813 813 812 811
742 746 748 752 755 758 762 765 768 772 775 778 780 782 786 788 790 791 793 794 795 796 798 800 802 803 805 806 808 809 810 810 812 814 816 817 819 820 821 823 825 826 826 827 828 828 828 828 828 828 829 829 829 829 828 828 828 828 828 829 829 829 829 828 828 826 824 823 822 821 820 819 817 816 816 815 814 814 813 813 812 811 810 809 808
737 741 744 747 751 754 758 761 765 768 771 774 776 779 782 785 785 786 787 789 790 791 792 794 797 799 801 803 805 808 809 809 810 811 813 815 816 817 819 820 822 824 824 825 825 826 826 826 826 826 827 827 827 827 827 826 827 827 827 827 827 827 827 827 826 825 823 821 821 819 818 817 816 814 814 813 812 812 811 810 810 809 808 807 806
732 736 739 743 747 750 754 757 761 764 767 769 772 774 776 779 780 781 783 784 785 786 787 789 792 795 797 800 803 805 807 808 808 809 809 810 813 815 816 817 819 820 821 822 822 823 823 824 824 825 825 825 825 825 825 825 825 826 826 826 826 826 825 825 824 824 822 820 818 817 816 815 814 813 812 811 810 810 809 808 807 806 805 805 804
727 731 734 738 742 746 749 753 756 759 762 764 766 767 769 771 774 775 777 778 779 781 782 785 787 790 793 797 799 801 803 804 805 806 806 806 809 811 813 814 816 817 818 819 820 820 821 821 822 823 823 823 824 824 824 825 824 824 824 824 824 824 824 824 823 822 821 819 816 815 814 813 812 811 810 809 808 807 806 805 805 804 803 802 801
722 726 730 734 737 740 744 748 751 754 757 759 760 761 764 766 768 769 771 773 775 777 779 781 783 786 789 792 795 798 800 801 802 803 803 803 805 808 810 812 813 813 815 816 817 818 818 819 820 821 821 822 822 822 823 823 823 823 823 822 822 822 822 822 821 820 819 817 815 813 812 811 810 809 808 807 806 804 803 802 802 801 800 799 798
716 721 725 729 732 735 738 742 745 748 751 753 754 756 760 762 763 765 766 768 771 773 775 777 779 782 785 787 791 793 796 798 800 800 800 799 801 804 806 808 810 811 812 814 815 815 816 817 818 818 819 820 820 821 822 822 822 822 821 821 821 820 820 819 818 817 816 815 813 812 810 810 809 807 806 806 804 803 802 800 798 798 798 796 795
712 716 720 724 728 731 733 736 739 743 746 748 749 752 755 758 759 761 763 764 767 769 770 772 775 778 781 784 786 789 792 795 796 797 797 797 799 801 803 805 806 808 809 811 812 813 813 814 815 816 817 818 819 819 820 820 820 820 820 819 819 818 818 817 816 815 814 812 811 810 808 807 806 804 804 803 802 801 800 799 796 795 795 793 792
708 712 716 720 724 727 730 733 737 740 742 743 744 747 750 753 755 757 758 760 763 764 766 768 771 774 777 780 783 785 788 790 792 794 795 795 796 798 800 802 803 805 807 808 809 810 811 812 813 814 815 816 817 818 818 818 819 819 819 818 817 817 816 815 814 813 812 810 809 807 806 804 803 801 801 800 800 799 798 797 795 793 792 790 789
705 709 713 716 720 723 727 731 734 736 738 739 741 743 745 748 750 752 753 756 759 761 763 766 768 770 773 776 779 782 784 786 788 789 792 793 794 795 797 798 800 802 804 805 807 808 809 810 811 812 813 814 815 815 816 817 817 817 817 816 816 815 814 814 813 812 811 809 807 806 804 802 801 799 798 798 797 797 795 795 793 791 789 787 785
701 706 710 713 717 721 724 727 730 732 734 736 738 740 743 745 747 748 750 753 757 759 761 764 765 767 769 772 775 778 780 782 784 786 789 791 792 793 794 795 797 799 801 802 804 805 806 807 808 810 811 811 812 813 813 814 814 815 814 813 813 813 812 812 811 811 810 808 806 805 803 800 799 798 797 796 795 794 794 793 791 789 787 785 782
698 703 706 711 714 717 721 724 727 729 731 733 735 738 741 743 745 747 749 752 755 757 759 761 762 764 766 768 771 774 776 779 781 783 785 788 790 791 792 793 793 795 797 799 801 802 804 805 806 807 808 809 811 811 811 811 812 812 812 811 810 810 810 809 809 809 808 807 805 804 802 799 797 796 795 794 794 793 792 791 790 787 785 783 780
696 700 704 708 711 714 718 721 724 726 728 731 734 736 739 741 743 745 748 751 753 755 757 758 760 762 764 766 769 772 774 777 778 780 783 785 788 789 790 791 791 792 794 796 798 800 801 802 803 805 806 807 809 809 809 809 809 809 809 808 808 807 806 806 806 806 806 805 803 802 800 798 796 794 794 793 793 792 791 790 788 786 783 781 779
693 697 701 705 708 712 716 718 721 724 727 730 732 735 737 739 741 744 746 749 751 753 755 757 758 760 762 764 767 770 772 775 776 778 780 782 785 787 789 790 789 790 791 793 795 797 798 800 802 803 804 805 807 807 807 807 806 805 805 805 804 804 803 803 803 803 803 802 801 799 798 796 794 793 793 792 792 791 790 788 786 784 781 779 777
691 695 699 703 706 710 713 716 720 723 726 729 731 733 735 737 740 743 745 747 749 750 753 755 756 758 760 762 765 767 769 771 773 776 778 780 782 784 786 788 788 788 788 790 792 793 795 797 800 801 802 803 804 803 803 803 802 802 802 801 801 801 801 801 800 800 800 799 798 796 795 794 793 791 791 791 790 789 788 787 785 782 780 777 774
689 693 697 700 704 707 711 714 717 720 724 727 729 731 734 736 739 741 743 745 747 748 750 752 754 756 758 760 762 765 767 769 771 773 776 778 780 782 784 785 785 785 785 786 788 790 792 794 796 798 799 799 799 799 799 800 799 799 799 799 800 800 799 798 798 798 797 796 795 794 792 791 790 789 788 788 788 787 786 785 783 781 778 774 771
687 691 695 698 701 705 708 711 714 717 721 724 727 730 733 735 737 740 742 743 744 745 747 749 750 753 755 757 759 762 765 767 768 771 773 775 778 779 780 781 781 782 782 783 785 787 789 791 792 794 795 795 796 796 796 796 796 797 797 797 798 797 796 796 795 794 793 792 791 790 789 788 787 786 786 785 785 784 783 782 780 778 775 771 768
686 689 693 696 699 703 706 709 712 715 719 722 725 728 731 734 736 737 739 741 742 743 744 746 748 750 752 755 757 760 763 765 766 768 770 772 774 776 777 777 778 779 779 780 782 784 786 787 788 790 791 791 792 792 792 793 794 794 795 795 795 794 793 793 792 791 789 788 788 787 786 785 784 783 782 782 781 780 779 777 776 774 772 769 766
684 687 691 695 698 702 704 708 711 714 718 721 724 727 730 732 734 736 737 739 740 741 743 745 746 747 750 753 755 758 761 763 764 766 767 769 771 772 773 774 775 776 776 777 779 781 783 784 785 787 788 788 788 788 789 790 791 791 792 792 792 791 790 790 789 788 787 786 785 785 784 783 782 780 779 777 776 775 774 772 771 771 769 767 764
682 687 691 694 697 700 703 707 710 712 716 719 722 725 728 730 733 734 736 737 739 740 741 744 746 746 748 750 753 756 759 760 761 763 764 766 768 769 770 771 772 773 774 775 777 779 780 781 783 784 784 784 784 785 786 787 788 788 789 789 789 788 787 788 787 786 785 784 783 783 781 780 779 777 775 774 772 771 770 769 769 768 766 763 761
682 686 690 693 696 699 702 706 709 711 714 717 719 723 726 728 730 732 735 737 738 740 742 743 745 745 746 748 751 753 756 757 758 759 761 763 765 768 769 770 771 771 772 774 776 777 777 779 780 780 780 781 782 783 784 785 785 786 786 786 786 786 785 785 785 783 783 782 781 780 779 777 776 775 773 771 770 769 768 768 768 766 765 762 760
682 686 689 692 695 698 701 705 708 710 713 715 717 720 723 726 728 730 733 736 738 740 741 742 743 743 744 746 748 750 752 753 754 756 759 762 764 766 768 769 770 770 770 772 773 774 775 776 777 778 778 779 780 781 783 783 783 783 784 784 784 784 784 783 782 781 781 781 780 779 777 776 774 773 771 769 768 768 768 767 766 765 764 762 760
682 686 689 691 695 698 701 704 706 709 712 714 716 718 721 723 726 728 732 735 737 739 740 740 741 742 743 744 746 747 749 750 752 755 758 761 763 765 766 767 768 769 769 769 770 771 773 774 774 775 776 777 778 780 780 781 780 781 781 782 782 782 781 781 780 780 780 779 778 776 775 774 772 770 770 769 768 767 767 765 764 763 761 759 758
684 687 690 692 696 699 702 705 707 709 711 713 715 717 720 722 725 727 731 734 737 737 737 739 739 740 741 743 744 746 747 749 751 753 756 758 760 763 764 764 765 767 767 767 768 769 770 771 772 773 774 775 777 778 778 778 779 779 780 780 780 780 779 779 779 779 778 777 775 774 773 772 771 770 769 768 767 766 765 763 762 760 758 756 754
684 688 691 693 697 699 701 704 707 708 710 712 714 716 719 722 725 727 730 733 735 736 736 737 737 737 739 741 743 746 747 748 750 751 754 757 759 761 761 761 763 765 766 766 767 767 767 768 769 771 772 774 775 776 776 777 777 778 779 779 778 778 778 778 778 777 776 775 773 773 772 771 770 769 768 767 766 764 763 761 758 757 755 753 750
684 687 691 695 699 701 701 702 705 707 710 712 714 716 719 721 724 727 729 732 733 734 734 735 735 736 737 739 742 744 746 748 750 750 753 757 759 758 758 759 761 763 765 766 765 765 765 766 767 769 771 773 774 775 775 776 776 777 778 777 777 776 776 776 776 776 775 774 773 772 771 770 769 768 766 765 764 762 760 758 756 754 752 750 747
683 686 690 696 701 704 705 704 705 707 710 712 714 716 718 721 723 726 728 729 730 731 731 732 732 734 736 738 740 743 745 748 749 750 752 754 754 754 755 757 759 761 763 764 764 763 763 764 765 768 770 771 772 773 774 775 775 775 775 775 775 775 774 774 774 774 775 774 773 772 771 770 768 766 765 763 761 760 758 756 754 752 750 748 745
681 684 688 693 698 703 706 707 708 709 711 713 714 716 718 720 722 724 725 726 727 728 728 729 731 733 734 737 739 742 744 746 746 748 749 750 751 752 754 757 759 760 762 763 763 763 763 763 764 767 768 769 770 771 772 773 773 773 773 773 773 773 773 773 772 772 772 771 771 770 769 768 767 765 763 761 759 758 756 755 753 751 749 747 743
682 684 686 690 695 700 706 708 709 710 711 713 714 715 717 719 721 722 724 725 725 726 727 728 730 732 734 736 738 740 743 744 745 747 748 749 751 753 755 757 758 759 761 762 762 762 762 762 763 765 766 767 768 768 770 771 771 771 772 771 771 771 771 771 770 770 769 768 768 768 768 767 765 763 761 759 758 756 755 753 751 749 747 744 741
682 684 686 689 693 699 705 708 709 710 711 713 714 716 717 719 720 722 723 724 725 726 727 729 730 732 734 736 737 739 742 744 745 747 748 750 752 753 755 756 757 759 760 761 761 761 760 761 762 763 764 765 765 766 767 768 768 769 769 769 770 769 769 769 768 767 766 766 767 768 767 765 763 762 760 758 756 754 753 751 749 747 745 742 739
682 684 685 689 694 700 704 707 708 709 710 712 714 716 718 720 721 722 723 724 725 727 729 730 731 732 733 735 736 739 741 743 745 747 748 750 752 753 755 756 757 759 760 760 760 760 759 760 761 761 762 763 763 764 765 765 766 766 766 767 767 767 767 766 765 764 764 765 767 767 766 764 762 761 759 757 755 753 751 749 747 745 743 740 737
681 683 686 691 696 700 703 705 707 708 710 712 713 715 717 719 721 723 724 725 726 728 729 731 731 732 733 735 737 739 742 743 745 747 748 750 752 753 755 757 758 759 759 760 760 759 759 760 760 760 761 762 762 762 763 763 764 764 765 765 765 764 765 764 763 763 764 766 766 765 764 762 761 759 757 756 754 752 750 748 745 743 741 738 736
680 683 688 693 697 699 702 704 705 707 709 711 713 714 716 718 721 723 724 726 727 728 730 731 732 732 734 736 738 740 742 743 745 746 747 749 751 753 755 757 758 758 759 759 759 759 759 759 758 758 759 760 760 761 762 762 763 763 763 764 764 763 763 763 763 764 765 765 764 763 762 761 759 758 756 755 753 751 748 746 744 742 739 737 734
683 686 690 693 695 697 700 702 704 705 708 710 711 713 715 717 720 722 724 725 727 728 730 731 732 733 734 736 738 739 741 742 744 745 746 748 750 753 755 756 757 758 758 759 759 758 758 757 757 757 757 758 759 760 761 762 763 763 763 764 763 762 761 763 764 764 764 763 762 761 760 759 758 757 756 754 751 750 748 745 743 741 738 736 734
687 689 691 693 695 697 699 701 702 704 706 708 710 712 714 716 718 720 722 723 725 727 729 730 731 732 734 735 737 738 740 741 743 744 746 748 750 753 755 756 757 757 757 758 758 758 757 756 756 756 758 759 760 761 762 762 763 763 763 763 761 760 762 764 764 763 762 762 761 760 760 759 757 756 755 752 751 749 746 744 742 740 738 736 733
689 691 692 694 696 697 699 701 702 703 705 707 709 711 712 714 716 717 719 720 722 725 728 730 731 732 734 735 737 738 739 741 742 744 746 748 750 752 754 755 755 756 756 756 757 757 757 756 756 757 758 759 760 761 762 763 762 762 762 761 759 760 763 764 763 762 762 762 761 760 759 758 756 755 753 751 750 748 745 743 742 739 738 736 733
690 691 693 695 696 698 700 701 702 704 705 707 709 710 711 713 714 715 716 718 721 724 728 730 731 733 735 736 737 738 740 742 743 745 747 749 750 752 753 753 753 753 753 754 755 756 756 757 757 758 759 760 761 761 762 761 761 760 759 758 758 761 764 764 763 762 762 761 760 759 758 756 755 754 753 751 749 747 745 743 741 739 737 735 732
690 691 693 695 697 699 700 702 703 704 706 707 708 709 711 712 713 714 715 717 721 725 728 730 731 733 735 737 738 739 741 743 744 746 747 748 749 750 751 751 751 750 751 752 753 755 755 757 758 759 759 760 761 761 760 760 759 759 758 758 759 761 763 763 762 762 761 760 759 758 757 756 754 753 752 750 748 746 744 743 740 738 735 733 730
691 692 694 696 698 699 701 702 704 705 706 707 708 709 710 711 713 714 716 718 721 724 727 729 731 733 734 736 738 739 741 743 744 746 747 748 749 749 749 749 749 749 749 751 753 754 755 756 758 758 759 760 760 760 760 760 759 759 760 760 761 761 761 760 760 759 759 758 758 757 756 755 754 753 752 750 748 746 744 742 740 737 735 732 730
692 694 696 697 698 699 701 703 704 705 706 707 708 709 710 712 713 715 716 718 720 723 725 728 730 731 733 735 736 738 740 742 743 744 745 746 747 748 748 748 748 748 750 751 752 753 755 756 756 757 758 759 759 759 759 759 759 759 760 761 761 760 760 759 758 758 758 757 757 756 756 754 753 752 751 749 747 746 744 741 739 737 734 732 729
693 695 696 697 698 700 701 702 703 705 706 708 709 710 712 713 714 715 717 718 720 722 724 726 728 730 732 733 734 736 738 739 740 741 743 744 745 746 746 747 747 748 749 751 752 753 754 754 755 755 756 757 757 758 758 758 758 759 760 760 760 759 759 758 757 757 757 757 756 756 755 754 753 752 751 749 747 745 743 741 739 736 734 732 729
693 695 696 697 698 699 700 702 704 705 708 709 710 712 713 714 715 716 717 718 719 721 722 724 726 728 730 732 734 735 737 737 738 739 740 741 743 744 745 746 746 747 749 750 750 752 752 753 753 754 755 756 756 757 757 757 758 759 760 759 758 758 757 757 756 756 756 756 756 755 754 754 753 751 750 748 746 744 742 740 738 736 734 731 729
693 694 696 697 698 699 701 703 705 707 708 710 712 713 714 715 716 717 717 718 719 720 721 722 725 727 729 731 733 735 736 736 736 737 738 739 741 742 743 745 745 746 748 749 749 750 751 752 752 754 754 755 756 756 756 756 757 758 758 758 757 757 757 756 756 756 755 755 755 755 754 753 752 750 749 747 745 744 742 740 738 736 734 732 729
694 695 696 698 699 700 702 704 705 707 709 711 713 714 715 716 717 717 717 718 719 720 720 722 724 727 729 731 733 734 735 735 735 735 736 738 739 741 742 744 745 746 747 748 748 749 750 750 751 752 753 753 754 755 756 756 757 758 757 756 756 756 756 756 756 755 755 755 755 754 753 752 751 749 748 746 745 743 741 740 738 736 734 732 729
695 696 697 699 701 702 703 704 706 708 710 711 713 714 716 717 717 717 718 718 719 720 721 722 723 726 729 730 732 733 733 734 734 734 735 736 737 739 740 742 743 744 745 746 747 748 748 749 750 750 751 752 752 753 755 756 757 757 756 756 755 755 755 755 755 755 755 755 754 753 752 751 750 749 747 746 745 743 741 739 738 736 734 732 729
697 698 699 700 702 703 704 705 707 708 709 711 713 714 716 717 717 718 718 718 719 720 721 722 724 726 728 729 730 731 732 732 733 733 734 735 736 737 738 740 741 743 743 744 745 746 747 748 749 749 749 750 751 752 754 755 756 755 755 755 755 754 754 754 754 754 754 754 753 753 752 751 749 748 747 746 744 743 741 740 738 736 734 732 730
699 700 701 702 702 703 704 705 706 708 709 711 713 714 715 716 717 717 718 718 719 720 720 721 723 725 726 728 729 730 731 732 732 732 733 734 734 736 737 739 740 742 743 743 744 744 745 747 748 748 748 749 749 751 752 753 754 754 754 754 753 753 753 753 753 754 754 753 753 752 751 750 749 748 746 745 744 742 741 739 738 736 734 732 730
700 700 701 702 703 704 704 705 707 708 709 711 712 713 714 716 716 717 718 719 720 720 720 720 721 722 723 724 726 727 729 730 731 731 732 733 734 735 736 737 739 740 741 742 743 744 745 746 747 748 748 748 748 748 750 752 753 753 753 752 752 751 751 752 752 752 752 751 751 751 750 750 748 747 746 745 744 742 741 739 738 736 735 732 730
700 700 701 702 703 704 705 706 707 708 709 711 713 714 715 716 716 716 717 718 719 719 719 719 719 720 720 721 722 724 725 727 728 730 731 732 733 734 735 737 738 739 739 740 742 743 744 746 746 747 747 747 747 748 749 750 751 751 751 750 750 750 751 751 751 751 750 750 750 750 749 749 748 747 746 745 743 742 741 739 738 737 735 732 730
700 700 701 702 703 703 705 706 706 707 709 711 712 713 714 715 715 715 716 717 717 718 718 719 719 719 719 720 722 723 724 724 725 727 728 729 731 733 734 736 737 737 738 739 740 741 743 744 745 746 747 747 747 748 748 749 750 749 749 748 749 750 750 750 749 749 749 748 748 749 749 748 747 746 745 744 743 742 741 740 738 737 734 732 730
700 701 701 702 702 704 705 706 706 707 709 711 710 710 712 714 714 715 716 718 718 719 719 720 720 720 720 720 721 722 723 724 725 725 726 727 729 731 733 734 735 736 737 738 739 740 741 742 743 745 745 746 746 747 748 748 748 747 747 747 748 749 749 749 748 748 747 747 747 747 747 747 747 746 745 744 743 742 741 740 738 736 734 732 730
Wind_Speed
28 28 28 27 26 26 26 26 26 24 23 23 23 22 21 20 19 18 18 19 19 20 21 20 20 20 20 19 20 20 20 20 18 18 18 16 15 13 11 10 10 10 9 9 9 9 9 9 10 10 9 9 8 8 9 9 8 7 7 7 8 8 8 9 9 11 15 16 16 16 16 15 15 14 15 15 14 14 14 14 15 16 16 16 17
30 29 29 28 27 27 26 26 25 24 24 24 24 23 21 20 19 19 21 22 22 23 23 22 22 21 21 20 21 22 24 23 20 19 18 17 16 15 12 11 10 10 10 10 10 10 10 11 11 10 10 10 9 9 9 9 8 8 8 8 9 9 8 10 11 12 14 16 16 17 17 16 16 15 14 15 15 14 15 15 15 15 16 16 16
31 30 29 29 28 27 27 26 26 25 25 25 25 23 21 21 22 24 24 24 24 25 25 25 24 24 23 22 23 22 22 22 20 19 19 18 17 16 13 12 11 11 11 11 11 11 11 12 11 10 10 10 10 10 10 9 8 8 9 8 9 10 10 11 12 13 15 16 16 16 17 17 17 16 15 15 15 15 16 16 16 16 16 16 17
31 31 30 29 28 28 27 27 26 27 26 26 25 24 23 24 26 26 25 24 25 27 27 27 27 26 24 23 23 22 22 21 20 20 20 19 18 17 15 13 12 12 12 12 12 12 12 12 11 11 10 11 11 10 10 9 9 9 9 9 9 10 11 12 12 13 15 16 16 17 17 17 17 17 16 16 16 16 16 17 17 18 18 18 18
31 31 30 30 29 29 29 28 28 28 27 26 27 28 28 27 27 27 26 25 26 28 28 29 29 28 26 25 24 24 24 23 22 22 21 20 19 18 17 15 14 14 13 13 13 13 13 12 12 11 11 12 11 11 10 10 10 10 10 10 10 11 12 12 13 14 15 17 18 18 18 17 16 17 17 17 17 17 17 18 18 18 18 19 20
31 31 30 30 30 30 30 29 29 30 29 27 29 30 29 27 27 28 28 28 27 28 28 29 29 29 28 27 25 26 25 24 23 23 22 21 20 19 17 16 15 14 15 15 15 14 13 13 13 12 13 13 12 12 11 11 10 11 11 11 11 11 12 12 13 14 16 17 18 18 17 17 16 17 17 18 19 19 19 18 18 18 18 19 20
31 31 30 29 30 31 31 31 31 31 30 29 30 30 29 28 27 27 29 29 29 28 28 29 29 29 30 28 27 27 26 25 24 24 23 22 21 19 18 17 16 15 15 15 15 14 13 13 14 13 13 14 14 13 12 11 11 12 12 11 11 11 12 14 15 16 16 17 17 17 17 17 17 17 18 18 19 20 19 18 18 19 19 19 19
30 30 29 28 29 30 31 32 31 31 31 31 32 31 30 30 29 28 28 29 29 29 29 30 30 29 30 29 28 28 27 25 23 24 25 23 21 20 19 17 16 15 15 15 15 14 13 14 14 14 14 15 15 14 12 12 12 12 11 11 12 13 15 15 15 16 16 17 17 17 17 18 18 17 17 18 18 19 19 19 20 21 20 19 19
29 29 29 27 28 29 28 27 27 27 30 33 33 31 31 32 31 30 30 30 30 29 30 31 30 30 29 28 28 28 27 26 25 27 27 24 22 21 19 18 16 15 15 15 15 14 14 14 14 14 15 14 14 14 14 14 14 14 15 15 15 16 15 15 15 16 16 17 17 17 17 18 18 17 16 16 17 19 20 21 21 20 20 20 21
28 28 28 27 26 26 25 24 24 25 28 31 31 30 31 31 32 33 32 31 29 29 29 29 29 30 29 28 29 27 26 27 29 30 28 24 22 21 19 18 17 15 15 14 14 14 13 13 14 14 14 14 13 14 15 16 17 19 20 21 20 19 17 15 15 16 17 17 17 18 18 18 18 18 17 18 19 21 21 20 19 19 19 19 19
28 28 27 26 25 24 23 23 23 25 27 28 28 27 27 27 29 31 31 29 27 26 27 27 27 28 28 28 29 27 26 28 30 31 30 26 23 21 20 19 17 16 15 14 13 13 13 13 13 12 12 12 14 15 15 16 17 20 23 24 24 23 21 18 17 17 17 17 18 18 18 17 17 17 19 20 20 20 19 18 17 18 18 17 16
27 27 26 25 23 23 22 23 23 24 25 26 27 25 24 23 24 24 24 24 23 23 24 25 26 26 26 27 28 27 26 27 29 31 31 29 26 21 19 18 17 15 14 13 13 13 12 12 10 9 10 12 14 15 15 15 18 21 22 23 23 22 23 22 20 18 17 18 19 19 18 18 17 16 16 17 18 19 19 17 17 17 18 17 17
26 26 25 23 23 22 23 23 23 23 24 24 25 24 22 23 23 21 21 22 21 21 22 23 24 25 25 26 26 25 23 24 27 30 30 31 30 25 19 16 16 15 13 13 12 10 10 10 8 7 10 12 13 13 14 15 18 20 20 21 21 20 21 23 22 21 20 20 20 19 18 17 16 15 14 15 17 18 18 17 18 18 19 20 20
25 25 24 23 22 22 23 23 22 22 21 20 22 22 21 22 23 21 21 21 19 19 21 21 23 24 23 23 23 22 20 21 25 28 29 31 33 30 24 18 15 15 13 12 11 9 8 9 10 11 12 11 12 14 15 14 16 20 20 19 19 20 22 23 22 21 22 23 22 20 18 17 16 15 14 15 17 18 18 19 20 20 22 23 24
24 23 23 22 21 21 22 23 21 21 20 18 19 21 21 21 21 20 19 19 18 19 20 21 21 22 21 21 21 20 19 20 22 25 27 30 31 31 25 19 16 15 13 12 11 10 8 8 10 13 15 13 14 17 17 14 15 18 18 18 19 20 22 22 20 19 20 21 21 20 19 18 17 16 15 16 18 18 18 19 20 21 24 25 27
22 22 22 21 21 21 21 22 21 21 20 19 19 20 20 20 19 18 17 16 16 18 20 20 20 21 22 22 20 19 19 19 20 22 23 26 28 28 23 18 16 15 13 12 11 10 9 9 11 14 16 15 15 17 17 15 15 15 15 16 18 20 20 19 19 20 20 20 19 19 18 18 18 18 19 19 19 19 18 19 20 22 23 24 25
21 21 21 21 21 21 21 21 22 22 21 20 19 19 19 19 18 19 18 17 16 17 20 21 21 21 22 22 20 19 17 17 19 20 21 23 25 24 20 16 15 14 12 11 10 11 12 12 13 14 14 13 14 17 17 16 16 14 12 14 16 17 18 18 18 20 19 18 18 18 17 18 19 19 20 20 20 20 18 17 17 21 23 20 20
21 20 20 20 20 21 21 21 21 21 21 20 17 17 18 18 17 18 19 18 17 17 18 20 20 20 21 21 20 19 18 17 17 18 21 23 24 21 18 16 15 14 12 11 11 13 14 14 14 14 13 13 15 17 16 16 16 14 11 12 14 15 16 17 17 17 16 16 16 16 17 19 21 21 20 20 20 20 21 21 20 21 21 19 19
21 19 19 19 20 20 20 19 19 20 20 19 17 16 17 17 17 18 18 18 17 17 17 18 18 18 19 20 20 19 19 17 16 17 20 21 22 20 17 16 15 14 12 11 12 12 12 13 13 13 13 15 16 16 15 15 15 14 12 12 14 15 15 15 16 15 14 15 15 15 17 18 20 20 21 22 22 22 24 27 25 21 20 21 23
19 19 18 19 19 19 18 18 18 18 18 18 17 16 16 16 17 17 17 16 16 16 17 17 16 17 17 18 18 18 17 17 17 18 20 21 22 20 17 16 15 13 12 12 11 12 13 13 13 13 14 15 14 14 15 16 16 15 13 12 13 14 15 14 14 13 13 15 15 16 17 18 19 20 21 22 22 21 21 21 22 21 21 23 25
19 18 18 18 18 17 16 17 17 17 18 18 17 16 16 16 16 16 15 14 13 13 15 16 16 16 17 18 18 19 21 22 21 21 22 22 22 19 15 14 13 12 12 12 12 13 14 13 12 12 14 14 11 11 13 14 14 14 13 12 14 16 18 17 14 13 14 15 15 16 17 18 19 20 21 22 22 20 18 17 18 20 21 23 25
18 18 17 17 16 16 15 16 16 16 16 17 17 16 16 16 16 16 14 12 11 13 14 15 15 16 16 18 19 20 22 23 21 21 21 20 19 16 14 14 14 12 12 13 15 14 11 10 11 13 14 12 10 10 12 12 12 12 13 15 17 19 19 16 12 12 13 14 15 16 17 19 20 21 21 21 20 18 17 17 19 21 23 24 25
18 18 16 16 15 15 15 16 16 15 16 17 17 16 15 15 15 16 15 12 12 14 15 14 14 14 14 16 17 17 17 17 18 20 21 19 17 17 16 16 16 16 15 14 14 12 9 10 12 11 11 10 10 10 11 11 12 13 15 16 17 17 15 12 10 11 13 14 15 16 18 19 21 21 20 18 17 17 17 19 22 24 24 24 24
17 16 15 15 14 14 14 14 14 14 15 16 16 16 15 14 14 16 16 14 14 15 14 14 14 15 14 14 13 13 14 16 18 19 20 18 18 20 20 17 17 18 15 12 11 11 11 12 12 9 9 10 11 12 12 12 13 14 14 14 13 13 11 10 10 11 13 15 17 18 19 20 20 19 17 16 17 18 20 22 23 23 22 22 23
16 15 14 14 14 15 15 15 13 13 14 15 15 15 15 14 14 15 16 15 15 13 13 14 15 14 14 13 13 12 13 16 19 19 18 18 19 20 20 18 17 18 14 11 12 13 13 12 10 8 9 10 11 11 11 11 11 10 10 10 10 9 9 9 12 13 15 17 18 18 19 18 17 16 16 18 19 20 20 21 20 20 21 21 23
16 15 14 13 13 14 15 15 14 13 13 13 13 14 15 14 13 14 14 15 15 14 14 15 14 13 11 11 13 15 14 14 17 19 18 18 20 20 20 20 20 18 15 14 15 14 13 12 10 9 9 9 9 7 7 8 8 8 8 9 9 9 9 10 11 12 15 17 18 18 18 16 16 17 18 19 19 19 19 19 19 20 20 20 21
18 16 15 14 12 11 11 12 13 13 13 12 12 13 15 14 13 13 15 15 15 16 16 14 12 12 11 10 13 16 14 13 16 21 22 22 24 24 24 23 21 19 18 17 15 13 12 10 8 7 7 7 6 5 6 8 8 8 9 9 10 12 12 11 11 12 14 16 17 18 18 17 18 19 18 18 17 17 17 18 19 20 19 20 21
19 18 18 16 14 11 10 11 12 13 13 12 11 13 14 14 14 14 13 12 12 14 15 13 11 11 12 13 13 15 14 15 19 22 22 23 25 26 24 22 20 19 18 16 13 11 9 6 4 4 4 3 3 6 8 10 10 9 9 9 10 11 13 14 15 15 15 15 15 17 18 18 18 18 17 17 17 17 17 17 18 19 20 20 19
18 18 18 17 15 13 11 11 13 13 12 11 11 12 11 11 12 11 7 5 4 4 6 8 8 9 12 14 14 14 14 14 17 19 20 20 23 23 20 18 17 16 14 13 13 12 9 6 5 5 5 5 7 8 9 10 10 11 12 11 10 11 13 14 14 14 14 15 15 17 17 17 17 17 16 17 17 17 17 17 18 19 19 19 19
16 16 15 15 15 14 13 13 13 14 13 12 12 13 11 9 10 9 6 5 4 2 3 7 9 10 12 14 14 14 14 13 15 18 19 19 19 17 14 13 13 14 14 14 13 10 6 5 6 7 7 8 9 9 10 10 10 11 12 12 12 12 13 13 13 14 14 14 14 15 17 17 17 16 16 16 17 17 17 18 18 18 18 18 19
15 14 13 14 15 15 15 14 14 14 14 13 12 11 10 10 10 8 6 5 5 5 6 8 9 11 14 15 15 15 13 11 13 16 16 15 13 11 11 11 12 14 15 14 10 7 6 7 8 8 9 9 9 9 10 11 12 12 12 12 12 12 14 14 13 11 9 9 12 16 17 16 15 15 15 16 17 18 18 17 17 17 17 18 18
14 13 13 15 15 15 15 16 15 14 13 12 12 11 10 9 9 8 6 5 5 6 7 7 9 12 14 14 14 14 12 10 10 12 12 13 13 12 12 13 13 12 12 10 7 6 6 8 9 9 9 9 9 10 11 11 12 12 12 12 12 13 13 11 9 8 8 11 15 16 15 14 15 15 15 16 17 17 17 17 17 17 17 17 18
13 13 15 17 16 15 15 16 15 14 13 12 11 12 12 10 8 9 8 6 6 6 6 7 8 9 10 10 11 12 10 9 10 11 13 15 16 16 14 14 13 11 9 7 5 6 7 8 10 10 9 10 10 10 10 9 10 11 12 12 12 13 13 11 10 10 11 13 14 14 13 14 14 14 14 15 16 16 17 17 17 17 16 17 18
13 15 17 18 17 16 15 14 14 14 12 12 11 11 11 11 10 10 9 8 7 7 6 6 7 8 8 9 10 11 10 10 11 14 16 18 19 18 15 13 10 8 7 5 5 6 7 9 11 10 10 10 10 9 8 7 9 11 11 11 13 14 14 13 12 12 12 12 12 12 13 13 13 13 14 15 15 16 17 17 16 16 16 17 18
15 16 17 16 15 14 13 13 13 12 11 12 12 11 12 13 13 12 11 10 9 8 7 7 8 9 10 11 11 11 11 12 13 15 17 19 19 17 13 10 7 6 6 6 6 7 8 9 10 9 9 8 6 6 7 9 11 10 10 12 14 14 13 13 13 12 11 11 11 12 12 12 13 13 14 14 15 16 16 16 16 16 17 17 18
15 16 15 14 13 12 12 11 11 10 10 11 11 11 12 13 13 13 12 11 10 10 9 9 9 10 10 11 11 12 13 14 15 16 18 18 17 15 11 9 7 7 7 7 6 6 7 8 8 7 8 7 5 5 9 11 11 11 12 13 14 13 13 13 12 10 9 10 11 12 12 12 12 13 13 14 15 15 16 16 17 17 17 17 18
14 14 13 12 12 11 10 10 10 9 9 9 9 10 11 11 11 12 11 11 11 11 11 11 12 12 11 12 14 15 16 17 17 17 17 16 15 14 10 8 8 8 7 6 6 6 7 7 6 6 7 7 7 8 11 12 12 14 14 12 10 11 12 13 13 11 10 11 12 12 11 12 12 12 13 14 15 15 15 16 17 17 17 18 18
13 13 12 11 11 10 9 9 10 10 9 8 8 9 10 10 10 11 10 10 11 12 12 12 13 12 13 15 17 18 18 18 17 16 16 16 16 14 10 8 8 8 6 5 6 7 7 6 5 6 7 7 8 10 11 11 13 14 13 11 10 10 11 12 12 11 11 11 11 11 10 11 11 12 13 14 15 15 15 16 17 17 17 17 17
13 14 14 12 10 9 9 9 9 9 9 8 8 9 9 9 10 9 9 10 11 11 12 12 12 12 14 18 20 20 18 16 14 13 14 15 15 13 10 9 8 7 6 5 6 7 7 7 7 8 7 7 8 10 10 11 11 12 12 12 12 11 11 10 10 9 9 9 9 9 10 11 11 12 13 14 14 15 16 17 17 17 17 17 17
12 13 13 10 8 8 8 9 9 9 8 7 7 7 7 8 8 8 9 9 10 10 11 12 12 13 16 20 22 21 17 13 12 12 12 13 13 11 10 9 8 6 5 6 7 7 7 8 8 8 7 7 9 10 10 10 11 12 12 11 10 10 10 9 9 8 8 8 9 9 10 10 11 12 13 13 14 15 16 16 16 17 16 17 17
10 11 11 8 7 8 9 9 9 8 7 6 6 6 7 7 8 8 8 9 9 9 10 10 10 13 16 19 21 20 15 11 11 13 11 11 11 10 9 9 8 7 7 8 8 8 9 8 8 7 7 8 9 10 10 11 11 11 11 10 10 9 9 9 8 8 7 8 8 9 10 10 11 12 13 14 14 15 15 15 16 16 16 16 17
9 10 10 9 9 9 9 8 8 7 7 7 7 6 7 7 7 7 7 7 7 7 7 7 7 11 14 15 16 17 15 10 10 12 11 11 11 11 10 10 9 8 8 8 8 8 9 8 7 7 7 8 9 9 10 11 10 10 10 10 9 8 8 8 8 7 7 8 8 9 9 10 11 12 13 13 14 14 14 15 15 15 16 16 16
10 10 10 10 9 9 8 9 9 8 8 8 7 7 7 7 7 7 6 6 6 5 6 5 7 11 13 13 11 13 14 12 11 11 11 11 12 12 11 10 9 8 8 8 8 8 8 8 9 8 8 8 9 9 9 9 9 9 9 9 8 8 8 8 8 7 7 7 7 8 9 10 11 12 12 12 13 13 14 15 14 15 16 16 16
10 10 9 9 9 9 9 9 9 9 9 9 8 7 6 6 5 5 5 5 5 4 6 6 8 12 13 12 11 12 14 14 13 12 11 11 12 12 11 10 10 10 10 9 9 8 8 8 9 9 9 8 8 9 10 9 9 9 9 8 8 7 7 7 7 7 7 7 8 9 10 10 10 11 12 12 12 13 14 14 14 15 15 15 15
8 8 9 9 9 10 10 10 10 10 9 8 7 6 5 4 4 4 4 5 5 4 5 5 7 10 10 11 11 12 14 14 13 12 11 12 13 12 11 12 12 11 11 10 9 9 9 8 9 9 9 8 8 9 10 9 9 9 8 7 7 7 6 6 6 5 6 7 8 9 9 10 11 11 11 12 12 13 13 13 14 15 15 15 15
7 8 9 10 10 10 9 9 9 8 7 6 5 5 5 4 4 5 5 4 5 6 6 5 5 6 7 8 9 11 13 14 13 12 12 12 13 11 11 11 12 11 11 10 9 9 10 9 9 10 10 9 8 10 10 9 9 9 8 8 7 7 6 5 4 5 6 7 8 9 9 10 11 11 11 12 12 12 13 13 14 14 14 14 15
7 8 9 9 9 9 9 8 7 6 6 5 5 6 6 5 5 5 4 2 3 5 6 6 6 7 7 8 8 8 10 12 13 12 12 12 12 11 11 11 11 11 11 10 9 9 9 9 10 11 9 8 9 10 9 9 9 8 8 7 7 6 6 5 4 5 6 6 7 8 9 10 11 11 11 11 11 12 13 13 13 14 14 14 14
6 6 7 7 7 7 7 7 7 6 6 6 6 6 6 6 6 6 5 4 4 4 5 5 5 6 8 8 8 8 10 11 11 11 11 12 12 12 12 12 11 11 10 9 9 8 8 9 10 10 9 9 9 9 8 9 9 8 7 7 8 9 10 9 7 7 8 9 8 9 9 10 10 10 10 11 11 12 12 12 12 13 14 14 14
6 6 6 6 7 7 7 7 7 7 7 7 6 5 5 5 5 5 5 5 5 5 5 5 6 6 7 7 7 8 10 10 10 10 11 11 11 11 11 11 11 11 10 10 9 9 9 9 10 9 8 9 9 8 8 9 10 8 7 8 10 11 11 11 10 9 10 10 9 9 9 10 10 9 10 10 10 11 11 11 12 13 13 13 13
5 6 6 6 6 6 7 7 7 7 7 7 7 7 6 5 5 5 4 3 4 4 4 4 5 6 7 7 8 9 9 10 10 10 10 11 10 10 10 11 12 12 11 11 10 10 10 10 9 9 8 8 7 7 8 9 9 8 9 10 11 10 10 10 10 9 9 8 7 8 8 9 9 9 9 10 9 9 11 11 11 12 13 12 12
5 6 6 5 5 6 6 6 6 6 6 6 6 5 4 4 3 3 2 2 2 2 3 4 5 6 6 7 8 9 9 10 10 10 10 11 11 11 12 13 13 12 11 11 11 10 10 9 9 8 8 8 9 9 9 9 9 11 11 11 11 10 10 9 9 9 8 7 7 7 7 9 9 8 8 9 8 9 10 10 10 12 12 11 11
Wind_Direction
191 191 195 199 198 195 196 197 198 198 197 197 198 200 200 197 198 200 196 189 185 182 183 186 188 188 189 189 191 191 191 192 192 193 195 198 205 215 222 221 221 226 232 239 246 249 248 246 250 254 259 264 265 266 267 265 264 268 274 279 280 279 280 283 284 287 293 298 300 300 302 302 297 289 287 284 282 280 276 272 272 272 272 272 274
192 192 194 197 197 195 196 196 196 196 196 195 196 198 199 196 193 193 191 188 186 185 185 187 190 190 190 191 193 195 195 193 192 192 192 195 203 212 218 220 221 226 230 233 237 241 243 245 249 252 257 259 258 256 257 260 267 274 274 272 274 275 270 271 275 280 286 292 294 295 298 300 298 293 289 286 284 282 279 277 276 273 273 274 275
193 192 193 196 196 194 194 195 194 194 194 195 197 198 198 195 192 191 190 189 189 187 187 189 189 189 191 193 194 198 199 195 193 192 190 193 203 210 212 214 218 224 227 230 232 234 236 242 249 254 254 253 253 251 251 256 265 271 272 271 271 273 272 271 274 278 284 288 289 291 295 297 297 297 294 288 287 284 281 281 279 277 277 276 277
194 192 194 195 194 193 193 194 194 193 194 196 197 199 199 197 195 193 192 193 192 190 189 188 187 188 191 192 194 198 200 198 196 195 191 192 200 209 212 211 214 221 228 230 229 230 235 241 247 253 255 255 253 249 248 256 265 268 271 272 271 274 278 279 281 283 286 289 288 290 293 293 294 297 297 293 289 286 285 283 280 278 278 278 280
195 193 195 195 192 192 194 194 194 194 196 197 198 200 201 197 195 196 196 198 197 192 188 186 186 187 189 191 194 198 199 197 197 198 194 193 199 206 210 212 214 219 226 231 231 231 237 242 249 252 254 255 254 253 256 261 265 268 272 273 274 279 281 282 285 288 288 288 288 290 293 293 294 295 296 297 295 291 288 284 280 279 280 282 282
195 194 195 196 193 192 193 194 196 196 196 198 201 202 201 196 196 198 199 201 198 193 189 187 186 187 188 191 194 197 199 199 200 201 197 194 198 204 208 213 215 217 223 230 231 233 237 243 250 253 254 255 254 253 257 261 265 268 271 275 278 282 285 287 290 292 290 287 288 293 296 297 298 296 296 297 297 295 294 289 284 284 286 287 286
197 195 195 196 194 192 193 193 194 195 194 198 202 203 201 200 202 203 202 203 199 195 192 188 186 188 189 192 195 196 198 202 205 206 200 194 198 204 207 211 215 217 223 229 232 233 237 242 248 251 252 253 254 256 259 262 266 269 271 275 278 281 287 290 292 293 293 289 289 291 294 296 296 294 295 297 294 292 294 293 291 294 294 291 287
197 196 194 195 194 193 194 193 193 194 193 196 200 201 203 206 208 207 205 205 202 197 192 188 187 189 190 191 192 193 197 202 206 208 203 197 198 203 206 209 214 218 222 229 234 236 239 245 249 251 248 247 250 254 258 260 263 270 274 276 278 280 283 285 287 290 291 291 290 290 293 295 294 293 295 296 293 293 295 295 295 297 296 292 288
195 195 193 193 193 193 194 193 192 190 190 194 198 199 201 205 209 210 207 206 205 199 194 190 187 187 188 190 192 194 198 202 206 208 205 200 199 203 206 208 213 218 222 229 234 237 242 248 253 254 253 251 251 254 258 258 262 272 280 281 281 281 281 282 284 287 290 291 290 291 294 295 295 296 296 295 294 296 297 297 297 296 295 293 290
191 193 192 192 191 191 191 189 187 186 189 195 198 197 199 202 207 209 205 203 203 199 195 194 190 186 186 189 191 195 200 204 208 210 207 202 201 202 204 208 212 217 222 229 237 241 244 246 251 256 255 251 251 257 264 266 268 277 283 282 279 277 275 277 281 285 288 289 289 293 295 293 294 297 297 297 297 297 298 300 299 297 297 296 292
187 189 190 189 188 186 183 182 184 185 189 194 197 197 199 201 205 204 199 197 200 198 196 195 191 187 186 188 191 195 200 205 210 211 208 205 204 204 204 205 208 215 222 229 237 243 246 247 251 250 244 245 251 255 260 266 273 283 288 286 281 275 270 269 274 281 285 286 289 291 292 292 294 296 296 299 301 303 304 303 299 298 298 296 293
183 186 186 185 182 179 177 177 180 183 185 191 195 196 198 198 198 196 193 195 197 196 195 194 190 188 189 191 194 197 201 206 211 212 210 208 206 207 207 205 205 212 219 226 235 242 244 246 245 237 242 260 265 261 265 276 281 284 288 288 282 274 269 266 267 272 275 279 285 287 287 291 295 295 297 304 307 307 305 301 297 297 296 292 290
180 182 182 180 177 174 174 174 178 181 184 189 194 196 198 198 196 192 192 195 196 194 192 191 190 190 191 192 195 199 203 209 214 216 215 212 210 211 215 216 212 213 219 226 233 238 236 236 240 247 260 269 267 265 272 276 274 276 280 281 278 274 271 269 268 269 268 269 276 282 284 288 292 294 301 310 310 306 304 301 299 297 293 290 289
176 179 179 177 174 172 173 177 180 181 183 188 194 197 200 200 198 195 195 196 197 193 192 191 190 190 190 189 194 200 205 212 219 221 220 218 216 218 223 226 221 219 223 229 235 236 232 239 251 259 264 263 260 269 273 265 264 271 271 272 275 276 275 274 272 270 266 263 265 272 278 283 285 290 298 306 306 302 300 299 297 295 292 290 290
175 177 177 177 175 173 177 181 181 184 188 191 195 201 205 205 201 199 199 200 199 196 196 195 192 189 189 189 193 202 209 216 222 224 224 223 222 221 223 226 226 223 222 226 234 233 227 233 243 251 261 262 258 270 276 267 264 269 267 268 272 272 272 276 275 270 265 262 263 270 279 282 283 288 295 302 301 297 294 293 292 292 292 291 290
174 175 176 178 178 176 178 180 181 187 193 196 198 204 210 212 209 206 205 203 200 198 199 198 194 193 192 191 196 204 213 219 220 219 221 223 222 220 220 222 223 221 219 222 225 218 214 216 220 235 253 257 256 271 282 273 260 260 262 264 265 266 270 276 278 276 271 269 271 276 282 284 286 289 294 299 298 295 293 291 291 291 291 291 290
174 174 175 177 178 177 178 178 180 185 191 193 196 203 209 215 216 214 212 208 202 200 200 199 197 195 193 193 197 204 214 221 219 215 216 218 216 214 214 215 215 212 209 209 209 214 229 237 235 240 250 251 259 278 286 274 258 255 258 261 263 267 272 276 279 281 280 280 282 285 290 296 300 298 297 297 296 293 285 279 284 291 292 290 290
174 173 174 175 175 175 176 176 178 181 185 189 193 198 205 211 213 213 214 215 213 208 205 204 200 196 197 198 200 207 215 219 216 212 211 212 212 208 205 206 205 200 196 198 206 222 239 245 245 249 253 257 271 282 280 267 257 255 260 266 267 270 274 280 286 291 295 295 292 293 299 305 306 303 297 293 291 286 272 263 270 284 286 284 286
173 172 173 172 171 171 172 172 174 176 181 188 193 195 198 204 209 210 211 217 221 219 216 212 202 194 196 201 204 209 214 215 213 209 206 208 212 208 201 201 199 192 190 195 205 218 230 238 242 249 261 270 277 276 264 253 252 257 263 267 271 275 281 288 293 297 300 297 292 293 299 302 301 298 293 289 287 285 274 265 264 268 271 278 286
170 169 168 166 165 166 166 167 170 172 177 185 191 193 195 200 207 208 209 215 220 219 219 218 206 193 192 199 206 212 217 221 222 216 212 216 216 207 198 200 200 191 183 187 197 209 221 233 243 254 267 272 271 262 252 246 251 259 262 265 273 279 284 290 294 298 298 294 292 291 291 292 293 293 293 291 290 291 286 275 269 270 276 284 290
163 162 161 159 158 159 160 163 166 169 173 181 187 191 194 199 202 203 206 212 214 212 216 222 220 211 207 213 221 226 231 236 236 228 221 216 209 201 198 203 200 185 180 190 205 216 226 238 249 258 264 263 256 250 248 249 255 261 260 262 267 270 276 285 292 294 293 292 291 289 289 293 296 295 295 296 296 298 298 291 286 286 289 293 295
153 153 152 151 151 153 156 161 165 167 172 180 185 186 189 194 195 194 196 202 203 205 213 223 226 221 216 220 226 231 235 238 232 219 209 203 199 199 201 204 202 191 188 201 212 218 228 238 244 250 254 250 244 246 250 256 264 267 265 265 264 267 275 284 289 291 294 293 292 292 293 296 297 296 296 298 300 300 298 295 294 295 293 292 292
143 143 144 144 146 151 154 156 161 164 170 178 183 183 185 187 183 179 181 190 198 202 210 218 221 219 215 214 217 220 224 225 214 200 196 197 200 200 199 203 208 203 197 203 211 217 226 226 225 234 240 238 244 256 263 268 271 269 267 267 268 271 278 284 287 288 288 285 286 289 291 293 296 298 300 300 300 299 297 296 295 294 291 289 286
134 136 138 140 143 148 151 155 161 165 170 176 178 179 182 182 173 167 173 189 200 203 206 209 212 216 214 207 202 199 199 200 196 193 195 195 193 196 202 208 210 206 202 201 203 205 205 204 207 217 228 237 253 264 270 274 273 270 269 271 276 279 282 286 286 281 278 280 287 292 293 295 298 298 297 297 298 299 298 296 293 290 290 289 287
130 133 136 141 148 154 155 157 162 166 172 175 171 169 174 175 167 163 172 189 202 207 208 206 209 214 212 203 192 182 181 186 187 189 194 194 190 194 203 207 206 208 208 201 196 195 192 192 200 217 231 246 261 269 274 278 275 273 278 286 291 288 283 281 277 274 279 286 292 296 296 296 296 297 298 301 301 299 296 294 292 293 294 293 292
130 132 134 141 154 160 157 157 161 163 166 166 164 167 171 170 165 168 180 193 203 210 212 211 214 215 205 190 180 174 171 179 186 186 185 187 189 192 197 200 203 206 206 201 196 193 189 192 204 221 237 254 262 264 272 278 277 282 289 293 291 278 265 262 266 278 291 295 296 296 297 297 298 300 301 300 297 294 294 294 296 298 300 301 301
133 137 139 145 156 163 159 156 158 159 156 157 163 168 167 165 164 175 190 200 207 212 213 212 213 207 190 171 167 167 165 171 185 187 184 185 191 193 194 198 201 199 199 199 195 192 196 203 217 235 250 264 265 253 251 253 260 272 277 277 273 262 253 259 274 288 293 292 293 296 296 297 299 299 299 298 295 295 297 297 299 301 303 305 303
141 142 142 145 150 154 156 157 158 156 152 154 160 161 162 168 172 179 194 207 212 218 220 217 210 195 176 166 166 170 174 180 187 190 188 189 194 195 196 199 198 194 197 197 188 186 193 194 192 209 220 237 260 264 256 244 242 251 257 262 265 261 264 278 286 280 269 269 284 296 297 297 298 298 299 299 297 298 300 299 299 301 302 303 301
142 140 141 143 143 146 157 164 160 152 142 132 128 131 145 166 172 170 174 182 193 221 222 204 191 172 161 163 170 177 183 189 193 193 193 193 193 192 194 198 195 192 195 191 177 172 173 171 179 198 215 236 257 268 267 256 250 252 252 256 266 271 274 280 281 276 273 281 295 301 298 296 297 298 299 299 298 300 302 301 300 299 298 298 297
142 139 141 142 141 148 163 166 159 155 151 140 127 119 119 135 147 145 140 142 150 155 150 158 168 170 167 169 177 182 187 195 200 199 197 196 193 187 188 195 197 198 197 187 177 177 190 212 227 237 247 253 258 266 270 269 269 267 259 258 267 275 276 277 279 283 288 294 299 299 296 295 296 298 299 300 301 303 303 301 299 297 298 299 299
142 143 142 139 144 156 162 159 157 157 157 156 150 135 120 113 117 122 130 140 146 145 142 145 155 164 165 166 171 176 181 191 202 202 198 195 189 184 188 195 197 198 194 186 185 206 232 242 250 259 263 260 258 262 266 269 272 274 274 275 275 277 280 287 294 301 304 301 297 296 294 294 294 296 299 301 303 304 304 303 302 301 302 303 304
147 150 139 134 146 157 153 152 157 155 149 152 160 159 150 128 106 104 118 140 148 148 144 140 138 142 145 150 160 171 177 187 198 201 200 197 190 185 189 191 190 192 192 190 201 228 243 252 262 268 267 264 263 264 267 272 276 277 281 285 284 283 287 299 321 336 323 302 294 293 291 290 292 295 300 302 303 304 304 306 307 307 306 307 308
152 149 138 139 153 158 150 151 156 151 146 151 157 163 170 160 127 110 112 122 136 143 143 142 141 142 145 151 164 177 187 197 203 202 201 199 193 189 192 195 197 203 206 206 221 241 247 254 262 265 264 263 266 266 268 276 282 281 283 288 289 289 295 310 329 326 305 289 285 285 286 289 294 299 303 304 304 305 307 308 309 309 311 312 312
134 136 142 149 156 154 149 152 151 144 146 153 153 160 174 173 159 150 145 142 141 139 139 147 155 162 172 178 183 192 200 202 200 197 195 193 192 195 199 200 201 208 207 205 228 246 249 255 263 267 267 268 272 277 285 288 284 282 283 285 286 291 302 308 306 298 291 286 285 287 290 296 301 304 304 304 305 307 309 310 311 314 316 314 314
128 133 141 147 148 146 144 147 146 143 147 154 156 160 167 169 171 173 172 169 163 148 139 152 170 183 193 194 194 198 197 192 189 187 187 188 191 194 194 189 190 197 198 204 228 247 254 264 272 271 265 268 282 299 298 288 283 284 285 283 285 294 303 300 290 286 290 292 291 294 297 299 301 302 301 304 308 309 310 312 315 317 317 315 316
132 133 137 139 139 138 137 137 139 141 146 153 159 161 161 165 172 175 175 176 169 148 131 137 154 166 179 184 181 177 175 175 178 179 181 186 189 187 183 183 186 189 189 196 216 238 250 266 278 274 263 268 286 286 275 273 275 274 271 277 290 300 298 292 292 295 297 294 292 294 296 296 298 302 304 306 310 310 310 315 317 316 317 317 316
137 134 135 135 132 131 131 131 132 135 141 151 158 158 157 163 172 177 177 174 161 145 135 136 139 139 144 154 158 158 157 160 165 169 174 180 182 183 192 202 200 198 204 209 218 239 252 261 274 277 267 266 270 264 261 266 270 264 259 267 287 290 280 282 293 296 291 288 288 288 292 296 300 304 307 309 311 311 313 318 318 316 316 317 315
130 131 132 129 127 130 130 126 128 135 143 150 156 158 159 165 171 175 174 164 151 143 143 146 145 140 141 147 153 155 155 156 159 165 172 177 181 188 206 220 216 223 240 231 219 238 253 252 253 261 259 256 260 265 271 279 282 283 286 294 297 283 269 270 278 276 270 272 277 283 292 300 302 306 310 310 310 313 317 320 318 317 318 320 319
116 124 127 125 129 136 135 134 140 150 155 156 159 162 163 165 168 169 165 159 154 149 149 154 156 153 151 154 159 161 159 160 164 170 176 183 189 199 215 225 227 237 250 235 221 231 243 244 240 242 245 253 264 274 286 293 292 293 295 293 287 279 270 265 267 265 264 271 283 292 299 301 303 309 311 309 312 317 319 317 317 318 320 321 321
124 129 132 135 137 139 142 149 156 160 162 161 161 161 161 162 167 169 165 163 160 154 153 159 163 161 161 165 168 169 169 174 181 181 181 189 199 207 215 225 229 227 226 231 229 224 228 237 236 230 236 253 258 259 267 282 291 290 285 277 273 272 270 268 270 273 277 285 293 296 297 301 307 311 310 310 314 316 314 315 318 320 321 321 323
138 139 144 148 145 143 152 160 159 155 157 157 154 157 160 161 164 167 164 163 159 153 157 165 164 163 171 180 182 180 180 187 192 190 188 196 204 208 214 223 228 220 216 223 226 222 227 237 236 231 243 258 263 264 270 280 289 287 278 271 268 266 267 268 270 273 279 287 291 296 300 306 311 309 307 310 312 312 314 318 320 321 323 324 326
142 145 151 154 153 152 156 152 141 138 144 147 146 151 154 154 155 155 156 160 161 160 171 178 165 163 178 190 192 190 194 203 204 201 203 207 211 214 216 218 221 219 218 223 226 227 234 244 246 250 263 271 276 282 283 283 282 277 269 268 268 263 265 271 273 277 284 286 289 297 303 305 306 305 304 309 313 315 319 321 321 323 326 327 328
137 139 145 148 149 147 141 137 137 141 144 141 141 145 147 150 154 156 162 173 175 179 196 189 148 149 171 185 188 195 209 220 221 217 215 213 213 216 215 214 214 212 213 224 231 228 230 238 242 247 259 269 273 276 278 279 280 274 268 269 270 265 269 277 279 283 288 289 294 305 305 303 305 307 307 312 318 319 319 321 323 327 328 327 329
133 133 136 138 138 136 134 137 138 133 129 129 132 140 148 157 162 166 180 189 184 197 219 195 142 138 160 178 185 199 215 225 228 227 223 217 214 213 208 206 208 207 207 220 231 232 235 245 243 235 232 240 256 269 275 277 276 269 264 266 267 263 268 274 276 286 298 301 302 305 304 304 309 310 311 318 321 318 319 324 326 327 327 328 331
135 136 135 134 136 135 133 131 128 125 129 138 143 148 159 172 181 191 205 205 194 206 231 210 155 146 162 178 189 202 214 223 229 231 225 219 218 216 209 208 210 210 211 218 222 223 231 245 250 245 238 238 252 268 270 266 264 263 263 263 260 261 269 277 282 292 302 303 303 303 305 309 312 312 315 320 320 317 321 327 327 326 328 329 330
133 137 136 137 139 138 134 131 132 137 147 153 156 166 180 191 198 200 206 208 202 203 211 208 189 181 186 192 200 209 215 222 228 230 227 227 229 224 215 209 207 209 219 229 232 231 234 241 251 259 260 257 259 264 263 258 256 256 252 250 253 260 270 280 291 302 303 301 303 304 305 308 310 309 312 317 317 318 323 326 326 328 330 328 328
143 145 144 143 142 140 140 141 143 148 157 162 172 184 184 179 180 184 183 188 209 211 208 204 201 201 203 206 212 218 221 226 231 232 229 231 231 221 209 206 209 214 224 234 239 240 239 239 247 260 265 257 249 249 250 253 254 251 246 244 243 240 239 244 269 306 308 302 303 306 304 305 307 308 313 318 319 319 322 325 328 331 329 326 329
167 164 163 162 154 148 147 148 150 160 170 174 177 179 172 169 175 178 170 169 188 208 218 218 213 212 214 214 217 220 220 224 234 237 232 230 232 224 212 209 214 219 224 228 232 237 238 240 248 257 257 249 244 239 237 244 249 247 243 238 226 223 236 252 270 286 282 280 289 298 298 298 301 306 313 316 316 317 321 326 330 332 328 326 330
177 169 168 169 164 157 155 158 165 171 167 160 160 164 163 168 180 182 177 183 193 202 213 223 227 236 243 241 236 235 228 224 230 236 231 226 228 225 215 209 210 216 221 224 223 221 226 240 253 257 252 246 241 228 220 233 241 237 231 230 228 236 255 273 283 281 274 274 284 291 291 294 300 306 310 312 313 319 325 328 330 329 325 325 332
170 166 165 168 170 166 164 168 176 176 166 166 177 180 173 179 199 203 201 216 233 233 236 244 247 252 256 252 247 250 249 243 241 240 233 224 215 207 202 206 213 221 229 233 226 219 220 231 247 257 260 258 250 233 226 231 232 223 218 224 234 253 277 290 296 294 286 276 274 278 286 294 300 302 306 311 316 323 326 327 328 326 324 327 333
164 169 171 172 169 166 168 176 182 177 177 192 208 203 185 194 213 202 186 224 260 262 268 279 280 275 269 259 251 247 248 250 252 250 243 233 220 206 203 208 214 220 229 237 238 237 233 228 228 238 247 251 248 243 238 231 223 220 224 233 247 269 288 297 304 308 299 277 264 268 280 291 298 301 306 311 320 325 323 321 322 322 324 329 335